DW6485 Weather Reports


time (UTC)temp
C
wind
direction
speed
KPH
gust
KPH
rain 1hr
cm
rain 24hr
cm
rain mn
cm
humidity
%
barometer
mb
20260505184807 15 205 24.1 33.8 0.00 0.00 0.00 49 1013.4
20260505184304 15 185 19.3 30.6 0.00 0.00 0.00 50 1013.5
20260505183801 15 190 16.1 33.8 0.00 0.00 0.00 51 1013.5
20260505183258 15 213 25.7 29.0 0.00 0.00 0.00 50 1013.3
20260505182755 15 198 32.2 40.2 0.00 0.00 0.00 50 1013.3
20260505182251 15 191 30.6 37.0 0.00 0.00 0.00 51 1013.4
20260505181748 15 191 22.5 33.8 0.00 0.00 0.00 52 1013.3
20260505181246 15 220 25.7 30.6 0.00 0.00 0.00 52 1013.3
20260505180742 15 213 29.0 35.4 0.00 0.00 0.00 51 1013.2
20260505180238 15 186 27.4 40.2 0.00 0.00 0.00 53 1013.5
20260505175735 15 173 25.7 35.4 0.00 0.00 0.00 52 1013.5
20260505175231 15 183 24.1 33.8 0.00 0.00 0.00 52 1013.4
20260505174728 15 203 17.7 33.8 0.00 0.00 0.00 52 1013.5
20260505174225 15 207 25.7 40.2 0.00 0.00 0.00 54 1013.2
20260505173721 15 225 16.1 35.4 0.00 0.00 0.00 53 1013.3
20260505173218 15 193 22.5 35.4 0.00 0.00 0.00 52 1013.3
20260505172715 15 218 17.7 25.7 0.00 0.00 0.00 52 1013.3
20260505172212 14 236 24.1 29.0 0.00 0.00 0.00 54 1013.3
20260505171712 15 190 25.7 40.2 0.00 0.00 0.00 54 1013.2
20260505171209 14 228 24.1 35.4 0.00 0.00 0.00 53 1013.4
20260505170706 14 204 22.5 33.8 0.00 0.00 0.00 55 1013.2
20260505170203 14 198 20.9 41.8 0.00 0.00 0.00 55 1013.5
20260505165703 13 197 20.9 33.8 0.00 0.00 0.00 56 1013.4
20260505165159 13 192 32.2 37.0 0.00 0.00 0.00 55 1013.2
20260505164655 13 181 24.1 35.4 0.00 0.00 0.00 57 1013.3
20260505164153 13 191 27.4 37.0 0.00 0.00 0.00 56 1012.9
20260505163651 13 199 29.0 37.0 0.00 0.00 0.00 56 1013.1
20260505163148 13 193 30.6 35.4 0.00 0.00 0.00 57 1013.3
20260505162646 12 216 24.1 30.6 0.00 0.00 0.00 59 1013.1
20260505162143 12 221 16.1 33.8 0.00 0.00 0.00 61 1013.1
20260505161640 12 184 29.0 33.8 0.00 0.00 0.00 60 1013.3
20260505161137 13 254 19.3 30.6 0.00 0.00 0.00 58 1013.2
20260505160635 12 218 22.5 29.0 0.00 0.00 0.00 59 1013.3
20260505160132 12 240 17.7 33.8 0.00 0.00 0.00 60 1013.3
20260505153112 11 213 9.7 19.3 0.00 0.00 0.00 66 1013.2
20260505152608 11 202 17.7 19.3 0.00 0.00 0.00 65 1013.2
20260505152104 11 190 9.7 17.7 0.00 0.00 0.00 67 1013.1
20260505151559 11 224 14.5 25.7 0.00 0.00 0.00 66 1013.2
20260505151058 11 191 19.3 24.1 0.00 0.00 0.00 66 1013.3
20260505150553 11 216 16.1 25.7 0.00 0.00 0.00 67 1013.3
20260505140519 8 244 8.0 16.1 0.00 0.00 0.00 73 1012.9
20260505124932 8 217 4.8 8.0 0.00 0.00 0.00 73 1012.5
20260505124429 8 169 6.4 11.3 0.00 0.00 0.00 73 1012.2
20260505123925 7 164 4.8 8.0 0.00 0.00 0.00 74 1012.4
20260505123422 7 187 4.8 6.4 0.00 0.00 0.00 75 1012.2
20260505122918 7 268 3.2 6.4 0.00 0.00 0.00 78 1012.4
20260505122415 7 276 0.0 6.4 0.00 0.00 0.00 79 1012.2
20260505121912 7 321 1.6 4.8 0.00 0.00 0.00 79 1012.1
20260505121409 7 340 0.0 0.0 0.00 0.00 0.00 79 1012.1
20260505120905 7 11 0.0 1.6 0.00 0.00 0.00 78 1012.0
20260505120402 7 303 1.6 6.4 0.00 0.00 0.00 77 1012.0
20260505115900 7 206 6.4 11.3 0.00 0.00 0.00 77 1012.1
20260505115357 8 237 4.8 11.3 0.00 0.00 0.00 76 1012.1
20260505114855 8 209 8.0 16.1 0.00 0.00 0.00 75 1012.1
20260505114351 8 207 9.7 12.9 0.00 0.00 0.00 75 1011.9
20260505113848 8 218 8.0 16.1 0.00 0.00 0.00 75 1012.0
20260505113345 8 210 14.5 19.3 0.00 0.00 0.00 75 1011.9
20260505112840 8 257 11.3 17.7 0.00 0.00 0.00 75 1011.9
20260505112338 8 252 11.3 16.1 0.00 0.00 0.00 76 1011.8
20260505111833 7 246 11.3 16.1 0.00 0.00 0.00 76 1011.9
20260505111329 8 230 12.9 17.7 0.00 0.00 0.00 76 1011.8
20260505110825 8 235 12.9 16.1 0.00 0.00 0.00 76 1011.9
20260505110322 8 232 12.9 16.1 0.00 0.00 0.00 76 1011.8
20260505101757 8 248 4.8 11.3 0.00 0.00 0.00 74 1011.7
20260505101253 8 273 6.4 11.3 0.00 0.00 0.00 73 1011.5
20260505100749 8 235 8.0 12.9 0.00 0.00 0.00 74 1011.8
20260505100246 8 265 8.0 11.3 0.00 0.00 0.00 76 1011.5
20260505095741 8 243 11.3 16.1 0.00 0.00 0.00 76 1011.5
20260505095240 8 259 14.5 19.3 0.00 0.00 0.00 74 1011.7
20260505094735 8 249 14.5 19.3 0.00 0.00 0.00 76 1011.5
20260505094232 7 218 11.3 17.7 0.00 0.00 0.00 78 1011.4
20260505093728 7 239 17.7 19.3 0.00 0.00 0.00 79 1011.7
20260505093226 7 268 11.3 12.9 0.00 0.00 0.00 79 1011.7
20260505092722 8 222 14.5 22.5 0.00 0.00 0.00 79 1011.5
20260505092221 7 248 14.5 17.7 0.00 0.00 0.00 80 1011.8
20260505091718 7 244 14.5 17.7 0.00 0.00 0.00 82 1011.9
20260505091216 7 298 6.4 8.0 0.00 0.00 0.00 81 1012.0
20260505090713 7 267 4.8 11.3 0.00 0.00 0.00 81 1012.0
20260505090211 7 239 8.0 12.9 0.00 0.00 0.00 81 1012.0
20260505085708 8 267 12.9 17.7 0.00 0.00 0.00 79 1012.0
20260505085206 8 199 11.3 17.7 0.00 0.00 0.00 77 1012.0
20260505084703 8 221 12.9 22.5 0.00 0.00 0.00 76 1012.0
20260505084202 8 223 14.5 22.5 0.00 0.00 0.00 77 1012.2
20260505083658 8 214 17.7 25.7 0.00 0.00 0.00 77 1012.2
20260505083156 8 252 16.1 25.7 0.00 0.00 0.00 76 1012.1
20260505082651 8 226 11.3 24.1 0.00 0.00 0.00 77 1012.1
20260505082148 8 247 19.3 30.6 0.00 0.00 0.00 76 1012.0
20260505081644 8 257 17.7 24.1 0.00 0.00 0.00 76 1012.0
20260505081142 8 268 16.1 25.7 0.00 0.00 0.00 75 1011.9
20260505080638 8 248 19.3 24.1 0.00 0.00 0.00 74 1012.0
20260505080134 10 253 9.7 11.3 0.00 0.00 0.00 71 1012.1
20260505075631 10 250 12.9 22.5 0.00 0.00 0.00 67 1011.9
20260505075127 10 230 16.1 24.1 0.00 0.00 0.00 67 1012.1
20260505074624 9 220 6.4 11.3 0.00 0.00 0.00 72 1012.1
20260505074121 9 300 3.2 4.8 0.00 0.00 0.00 73 1011.9
20260505073619 10 15 1.6 4.8 0.00 0.00 0.00 70 1012.0
20260505073117 10 29 4.8 6.4 0.00 0.00 0.00 71 1011.9
20260505072612 10 24 3.2 6.4 0.00 0.00 0.00 70 1011.9
20260505072109 10 142 8.0 11.3 0.00 0.00 0.00 70 1011.9
20260505071605 10 164 6.4 11.3 0.00 0.00 0.00 70 1011.9
20260505071103 10 165 6.4 8.0 0.00 0.00 0.00 71 1011.9
20260505070600 10 160 11.3 16.1 0.00 0.00 0.00 71 1011.8
20260505070056 10 226 8.0 12.9 0.00 0.00 0.00 70 1011.7
20260505065552 10 244 8.0 12.9 0.00 0.03 0.03 70 1011.5
20260505065049 10 231 9.7 16.1 0.00 0.03 0.03 70 1011.7
20260505064546 10 234 8.0 16.1 0.00 0.03 0.03 71 1011.8
20260505064045 10 247 9.7 16.1 0.00 0.03 0.03 72 1011.3
20260505063541 11 265 9.7 16.1 0.00 0.03 0.03 71 1011.3
20260505063037 11 215 12.9 24.1 0.00 0.03 0.03 69 1011.1
20260505062533 11 216 20.9 29.0 0.00 0.03 0.03 69 1011.1
20260505062031 11 226 17.7 22.5 0.00 0.03 0.03 70 1011.1
20260505061528 11 224 14.5 19.3 0.00 0.03 0.03 69 1011.3
20260505061026 11 225 11.3 17.7 0.00 0.03 0.03 69 1011.4
20260505060523 11 248 11.3 19.3 0.00 0.03 0.03 69 1011.2
20260505060020 11 210 16.1 22.5 0.00 0.03 0.03 68 1011.3
20260505055515 11 201 11.3 19.3 0.00 0.03 0.03 68 1011.4
20260505055012 11 207 12.9 24.1 0.00 0.03 0.03 68 1011.3
20260505054509 10 193 9.7 12.9 0.00 0.03 0.03 72 1011.4
20260505054008 10 220 4.8 12.9 0.00 0.03 0.03 73 1011.7
20260505053504 10 240 9.7 12.9 0.00 0.03 0.03 75 1011.4
20260505053000 11 301 4.8 6.4 0.00 0.03 0.03 74 1011.9
20260505052458 11 322 1.6 1.6 0.00 0.03 0.03 72 1011.7
20260505051955 11 265 6.4 8.0 0.00 0.03 0.03 72 1011.8
20260505051452 11 115 4.8 8.0 0.00 0.03 0.03 68 1011.8
20260505050950 12 74 4.8 12.9 0.00 0.03 0.03 62 1011.9
20260505050448 11 158 12.9 16.1 0.00 0.03 0.03 70 1011.5
20260505041416 12 79 6.4 8.0 0.00 0.03 0.03 60 1012.2
20260505040913 12 81 4.8 8.0 0.00 0.03 0.03 63 1011.7
20260505040410 12 268 3.2 4.8 0.00 0.03 0.03 59 1011.7
20260505035907 12 187 6.4 8.0 0.00 0.03 0.03 58 1011.4
20260505035403 13 230 4.8 8.0 0.00 0.03 0.03 58 1011.4
20260505034901 13 212 8.0 11.3 0.00 0.03 0.03 57 1011.2
20260505034357 13 208 11.3 16.1 0.00 0.03 0.03 57 1011.0
20260505033854 13 220 9.7 12.9 0.00 0.03 0.03 59 1010.7
20260505033350 13 203 11.3 16.1 0.00 0.03 0.03 56 1010.7
20260505032849 13 197 14.5 17.7 0.00 0.03 0.03 56 1010.6
20260505032345 13 184 11.3 17.7 0.00 0.03 0.03 57 1010.6
20260505031842 13 182 11.3 12.9 0.18 0.03 0.03 55 1010.5
20260505031339 13 153 4.8 8.0 0.18 0.03 0.03 52 1010.6
20260505030836 13 152 9.7 17.7 0.00 0.00 0.00 56 1010.6
20260505030332 13 182 17.7 24.1 0.00 0.00 0.00 53 1010.7
20260505025827 15 186 20.9 25.7 0.00 0.00 0.00 50 1010.7
20260505025325 15 128 20.9 25.7 0.00 0.00 0.00 42 1010.7
20260505024823 15 143 9.7 11.3 0.00 0.00 0.00 46 1010.7
20260505024322 15 334 8.0 17.7 0.00 0.00 0.00 48 1010.6
20260505023818 15 228 17.7 37.0 0.00 0.00 0.00 42 1010.3
20260505023315 17 260 16.1 19.3 0.00 0.00 0.00 35 1010.4
20260505022812 17 227 8.0 19.3 0.00 0.00 0.00 34 1010.0
20260505022309 17 263 6.4 8.0 0.00 0.00 0.00 33 1009.7
20260505021807 17 198 8.0 12.9 0.00 0.00 0.00 32 1009.4
20260505021303 17 225 8.0 12.9 0.00 0.00 0.00 33 1009.8
20260505020759 17 231 11.3 16.1 0.00 0.00 0.00 36 1009.7
20260505020254 17 203 9.7 12.9 0.00 0.00 0.00 36 1009.5
20260505015752 17 208 11.3 16.1 0.00 0.00 0.00 35 1009.3
20260505015249 17 219 12.9 17.7 0.00 0.00 0.00 34 1009.1
20260505014746 17 228 6.4 12.9 0.00 0.00 0.00 34 1009.0
20260505014243 17 243 11.3 16.1 0.00 0.00 0.00 34 1009.0
20260505013739 17 252 14.5 19.3 0.00 0.00 0.00 34 1009.0
20260505013236 17 284 14.5 24.1 0.00 0.00 0.00 35 1009.0
20260505012735 18 266 14.5 19.3 0.00 0.00 0.00 32 1009.1
20260505012232 18 249 12.9 22.5 0.00 0.00 0.00 32 1009.1
20260505011727 18 251 22.5 25.7 0.00 0.00 0.00 31 1009.1
20260505011225 18 241 14.5 19.3 0.00 0.00 0.00 32 1009.4
20260505010720 18 266 17.7 24.1 0.00 0.00 0.00 33 1009.4
20260505010217 18 251 19.3 22.5 0.00 0.00 0.00 32 1009.4
20260505005713 18 247 17.7 24.1 0.00 0.00 0.00 32 1009.7
20260505005210 18 244 17.7 22.5 0.00 0.00 0.00 32 1009.8
20260505004707 18 224 14.5 24.1 0.00 0.00 0.00 33 1009.3
20260505004204 18 236 20.9 24.1 0.00 0.00 0.00 32 1009.4
20260505003702 18 248 20.9 33.8 0.00 0.00 0.00 34 1009.4
20260505003159 18 220 20.9 30.6 0.00 0.00 0.00 33 1009.2
20260505002655 18 200 27.4 35.4 0.00 0.00 0.00 34 1009.3
20260505002153 18 231 25.7 33.8 0.00 0.00 0.00 35 1009.3
20260505001649 18 208 27.4 30.6 0.00 0.00 0.00 35 1009.3
20260505001147 18 231 24.1 30.6 0.00 0.00 0.00 32 1009.4
20260505000644 18 235 32.2 35.4 0.00 0.00 0.00 32 1009.7
20260505000142 18 214 29.0 35.4 0.00 0.00 0.00 32 1009.5
20260504235638 19 221 24.1 35.4 0.00 0.00 0.00 32 1009.3
20260504235129 19 213 20.9 40.2 0.00 0.00 0.00 32 1009.4
20260504234626 18 236 24.1 41.8 0.00 0.00 0.00 33 1009.5
20260504234124 19 203 29.0 33.8 0.00 0.00 0.00 33 1009.7
20260504233620 18 223 20.9 43.5 0.00 0.00 0.00 34 1009.2
20260504233115 20 214 9.7 22.5 0.00 0.00 0.00 28 1009.3
20260504232614 20 283 8.0 22.5 0.00 0.00 0.00 27 1009.2
20260504232110 20 220 27.4 33.8 0.00 0.00 0.00 30 1008.8
20260504231607 20 182 25.7 37.0 0.00 0.00 0.00 32 1009.2
20260504231103 18 187 22.5 35.4 0.00 0.00 0.00 33 1009.3
20260504230559 18 190 27.4 40.2 0.00 0.00 0.00 35 1008.8
20260504230058 18 190 24.1 41.8 0.00 0.00 0.00 33 1009.1
20260504225555 18 197 41.8 46.7 0.00 0.00 0.00 35 1009.0
20260504225052 18 186 33.8 48.3 0.00 0.00 0.00 33 1009.2
20260504224549 18 184 46.7 61.2 0.00 0.00 0.00 34 1009.3
20260504224046 23 104 6.4 24.1 0.00 0.00 0.00 15 1008.7
20260504223543 23 197 6.4 8.0 0.00 0.00 0.00 15 1008.3
20260504223038 23 25 4.8 12.9 0.00 0.00 0.00 14 1008.3
20260504222536 23 39 14.5 19.3 0.00 0.00 0.00 14 1008.1
20260504222033 24 57 11.3 17.7 0.00 0.00 0.00 13 1008.3
20260504221530 23 86 20.9 29.0 0.00 0.00 0.00 14 1008.4
20260504221027 23 117 17.7 24.1 0.00 0.00 0.00 14 1008.5
20260504220524 23 99 25.7 30.6 0.00 0.00 0.00 13 1008.6
20260504220021 23 115 4.8 12.9 0.00 0.00 0.00 14 1008.4
20260504215517 23 28 11.3 19.3 0.00 0.00 0.00 15 1008.5
20260504215015 23 334 16.1 19.3 0.00 0.00 0.00 15 1008.7
20260504214510 23 37 14.5 22.5 0.00 0.00 0.00 16 1008.7
20260504214007 24 54 20.9 35.4 0.00 0.00 0.00 15 1008.7
20260504213503 22 183 9.7 24.1 0.00 0.00 0.00 16 1008.7
20260504213001 22 160 17.7 22.5 0.00 0.00 0.00 16 1009.0
20260504212456 22 104 11.3 12.9 0.00 0.00 0.00 17 1009.1
20260504211954 22 63 17.7 19.3 0.00 0.00 0.00 17 1009.1
20260504211450 22 326 4.8 12.9 0.00 0.00 0.00 16 1009.4
20260504210948 22 59 8.0 17.7 0.00 0.00 0.00 16 1009.1
20260504210444 23 49 17.7 25.7 0.00 0.00 0.00 15 1009.4
20260504205941 22 359 6.4 8.0 0.00 0.00 0.00 18 1009.5
20260504205439 23 53 12.9 22.5 0.00 0.00 0.00 17 1009.7
20260504204937 23 117 27.4 46.7 0.00 0.00 0.00 18 1009.5
20260504204435 22 217 8.0 11.3 0.00 0.00 0.00 17 1009.7
20260504203934 22 335 11.3 17.7 0.00 0.00 0.00 17 1009.8
20260504203431 22 331 6.4 16.1 0.00 0.00 0.00 17 1010.0
20260504202927 22 353 11.3 16.1 0.00 0.00 0.00 19 1009.8
20260504202424 22 86 12.9 19.3 0.00 0.00 0.00 19 1010.0
20260504201921 22 327 4.8 12.9 0.00 0.00 0.00 19 1010.4
20260504201418 21 44 9.7 12.9 0.00 0.00 0.00 19 1010.1
20260504200915 21 178 8.0 16.1 0.00 0.00 0.00 20 1010.4
20260504200412 21 74 12.9 16.1 0.00 0.00 0.00 20 1010.7
20260504195909 21 139 4.8 12.9 0.00 0.00 0.00 21 1010.5
20260504195404 21 165 8.0 17.7 0.00 0.00 0.00 21 1010.6
20260504194901 21 141 11.3 16.1 0.00 0.00 0.00 22 1010.6
20260504194357 21 213 16.1 19.3 0.00 0.00 0.00 21 1010.6
20260504193853 21 243 12.9 16.1 0.00 0.00 0.00 22 1010.7
20260504193350 20 191 8.0 12.9 0.00 0.00 0.00 22 1011.1
20260504192849 21 211 11.3 12.9 0.00 0.00 0.00 22 1011.0
20260504192347 21 179 16.1 19.3 0.00 0.00 0.00 22 1011.2
20260504191845 21 176 14.5 16.1 0.00 0.00 0.00 22 1011.4
20260504191343 20 196 9.7 12.9 0.00 0.00 0.00 22 1011.3
20260504190838 21 180 11.3 16.1 0.00 0.00 0.00 22 1011.2
20260504190334 20 128 8.0 16.1 0.00 0.00 0.00 24 1011.3
20260504185831 20 153 12.9 16.1 0.00 0.00 0.00 24 1011.4
20260504185328 20 172 14.5 17.7 0.00 0.00 0.00 24 1011.3